This is the latest recevied weather packets stored in our database for station/object KJ7HSW. If no packets are shown the sender has not sent any weather packets the latest 10 day(s).
| Time | Temp. | Humidity | Pressure | Rain* | Wind** | Luminosity | Snow |
|---|---|---|---|---|---|---|---|
| 1778216713 | 13.89° C | 81% | 1016.7 hPa | 0 mm | - | 0 W/m² | - |
| 1778216410 | 13.89° C | 81% | 1016.8 hPa | 0 mm | - | 0 W/m² | - |
| 1778216106 | 13.89° C | 81% | 1016.8 hPa | 0 mm | - | 0 W/m² | - |
| 1778215804 | 13.89° C | 81% | 1016.9 hPa | 0 mm | - | 0 W/m² | - |
| 1778215501 | 13.89° C | 80% | 1016.8 hPa | 0 mm | - | 0 W/m² | - |
| 1778215196 | 14.44° C | 78% | 1016.9 hPa | 0 mm | - | 0 W/m² | - |
| 1778214894 | 15° C | 76% | 1016.8 hPa | 0 mm | - | 0 W/m² | - |
| 1778214589 | 15° C | 73% | 1016.6 hPa | 0 mm | - | 0 W/m² | - |
| 1778214288 | 15° C | 73% | 1016.5 hPa | 0 mm | - | 0 W/m² | - |
| 1778213984 | 15° C | 73% | 1016.7 hPa | 0 mm | - | 0 W/m² | - |
| 1778213681 | 15° C | 74% | 1016.8 hPa | 0 mm | - | 0 W/m² | - |
| 1778213378 | 15° C | 74% | 1016.7 hPa | 0 mm | - | 0 W/m² | - |
| 1778213075 | 15° C | 74% | 1016.8 hPa | 0 mm | - | 0 W/m² | - |
| 1778212773 | 15° C | 75% | 1016.7 hPa | 0 mm | - | 0 W/m² | - |
| 1778212469 | 15° C | 75% | 1016.7 hPa | 0 mm | - | 0 W/m² | - |
| 1778212166 | 15° C | 76% | 1016.6 hPa | 0 mm | - | 0 W/m² | - |
| 1778211864 | 15° C | 75% | 1016.5 hPa | 0 mm | - | 0 W/m² | - |
| 1778211560 | 15° C | 74% | 1016.4 hPa | 0 mm | - | 1 W/m² | - |
| 1778211258 | 15° C | 74% | 1016.4 hPa | 0 mm | - | 1 W/m² | - |
| 1778210955 | 15.56° C | 73% | 1016.6 hPa | 0 mm | - | 2 W/m² | - |
| 1778210653 | 15.56° C | 72% | 1016.5 hPa | 0 mm | - | 3 W/m² | - |
| 1778210349 | 15.56° C | 72% | 1016.7 hPa | 0 mm | - | 4 W/m² | - |
| 1778210047 | 15.56° C | 76% | 1016.5 hPa | 0 mm | - | 6 W/m² | - |
| 1778209742 | 15.56° C | 74% | 1016.6 hPa | 0 mm | - | 7 W/m² | - |
| 1778209440 | 15.56° C | 73% | 1016.5 hPa | 0 mm | - | 9 W/m² | - |
* Rain latest hour (hover to see other rain measurements)
** Current wind speed in m/s (hover to see current wind gust speed)